User: anonymous   Login
Location: Christchurch
(43.5330°S, 172.6330°E)
Time: 14:00:22
(UTC+13:00)
Language:

ARGOS - Orbit

View from above orbital plane
View from above orbital plane
View from above satellite
View from above satellite

Ground track
Ground track

The orbit data is extracted from the following two-line orbital elements,

1 25634U 99008A   19292.74062653 -.00000016  00000-0  12359-4 0  9994
2 25634  98.4990 336.8028 0009105 256.7506 103.2655 14.19359729 69688
Epoch (UTC): 19 October 2019 17:46:30
Eccentricity: 0.0009105
inclination: 98.4990°
perigee height: 821 km
apogee height: 834 km
right ascension of ascending node: 336.8028°
argument of perigee: 256.7506°
revolutions per day: 14.19359729
mean anomaly at epoch: 103.2655°
orbit number at epoch: 6968

The dashed part of the orbit path shows where the satellite is in the earth's shadow,  

DLR